Location: Waco, TX
(31.5480°N, 97.1670°W)
Time: 15:07:38
(UTC-05:00)

ISS - Pass Details

Date: 13 September 2019
Orbit: 411 x 421 km, 51.6° (Epoch: 17 September)

Event Time Altitude Azimuth Distance (km) Brightness Sun altitude
Rises 22:54:27 0° 238° (WSW) 2,328 - -40.0°
Reaches altitude 10° 22:56:35 10° 246° (WSW) 1,470 - -40.3°
Maximum altitude 22:59:44 41° 318° (NW) 604 - -40.9°
Drops below altitude 10° 23:02:54 10° 31° (NNE) 1,477 - -41.4°
Sets 23:05:04 0° 39° (NE) 2,342 - -41.7°
